STARLINK-37987, 69749

Orbit data source: Space-Track

STARLINK-37987, 69749 is a payload satellite owned by SpaceX/Seattle (US) in SSO that was launched on Thu, 02 Jul 2026 UTC via an FALCON 9 launch vehicle from the Air Force Western Test Range (AFWTR). Payload-class satellites include a variety of spacecraft equipped with specific instruments for various scientific and technological missions. These include communications satellites like Starlink; space stations such as the ISS; scientific satellites like the Hubble; Earth observation satellites from companies like Planet Labs, Umbra, and HawkEye 360; GPS; miniature CubeSats for education and research; and military/defense satellites.

Not visible in the next 10 days
Identifier
69749, 2026-150L
Orbit
SSO
Country
Flag of USUS
Related business
Manufacturer
SpaceX/Seattle
Mission
Operational spacecraft
Bus & Motor
STARLINK V2MO, Unknown motor
Mass
575 kg wet, ~530 kg dry
Launch date (UTC)
2026-07-02 (3 weeks ago)
Launch vehicle
FALCON 9
Launch site
Air Force Western Test Range (AFWTR)
Object type
Payload
Rocket body
Debris
Shape & HBR
Unknown shape, 17.7 m
Radar Cross Section
Large (>1 m²)

Expand to show TLE details & history
Last TLE update: 1 day ago

TLE from 1 day ago
0 STARLINK-37987
1 69749U 26150L   26202.12031902  .00167749  00000-0  11010-2 0  9998
2 69749  97.2844  40.7701 0000870 101.6219 258.5144 15.75244793  4252
Epoch: 2026-07-21T02:53Z
TLE epoch observation values (Epoch: 2026-07-21T02:53:15.563Z)
Latitude
-0.00001°
Longitude
58.56068°
Altitude
347.22 km
Speed
7.7 km/s
True Right ascension
02h 43m 04s
True Declination
0° 00' 00"
Sunlit
Object was in daylight at epoch
Visualization orbit readout
Latitude
Unknown
Longitude
Unknown
Altitude
Unknown
Speed
Unknown
Apparent Right ascension
Unknown
Apparent Declination
Unknown
Sunlit
N/A
Visualization observer readout
Local Sidereal Time
17:41:05
Azimuth
Unknown
Elevation
Unknown
Doppler factor
Unknown
Orbital elements
Apogee altitude
341.407 km
Perigee altitude
340.237 km
Semi-major axis
6,718.959 km
Eccentricity
0.00009
Inclination
97.2844°
RAAN
40.7701°
Arg. of periapsis
101.6219°
True anomaly
258.50463°
Mean anomaly
258.5144°
Eccentric anomaly
258.50952°
Mean motion
3.94085 °/min
Orbital period
91.35 mins
BSTAR
0.001101
Loading maneuver chart data...
Computing Atmospheric mass density...
Loading historical data...
Loading historical data...
Loading historical data...
Loading historical data...
Loading historical data...
Loading historical data...
Loading historical data...

Documentation

Showing up to 5 results
|